Regional Weather Roundup
Issued by NWS

Home | Current Version | Previous Version | Text Only | Print | Product List | Glossary Off
Versions: 1 2 3 4 5 6 7 8 9 10 11 12 13 14 15 16 17 18 19 20 21 22 23 24 25 26 27 28 29 30 31 32 33 34 35 36 37 38 39 40 41 42 43 44 45 46 47 48 49 50

000
ASUS43 KBIS 200010
RWRND

NORTH DAKOTA REGIONAL WEATHER ROUNDUP
NATIONAL WEATHER SERVICE BISMARCK ND
700 PM CDT TUE AUG 19 2014

NOTE: "FAIR" INDICATES FEW OR NO CLOUDS BELOW 12,000 FEET WITH NO
SIGNIFICANT WEATHER AND/OR OBSTRUCTIONS TO VISIBILITY.


NDZ001>003-009>011-017-200100-
NORTHWEST NORTH DAKOTA

CITY           SKY/WX    TMP DP  RH WIND       PRES   REMARKS
WILLISTON      SUNNY     90  55  30 SE10      29.65F
6HR MIN TEMP:  84; 6HR MAX TEMP:  93;

MINOT          SUNNY     84  55  36 SE8       29.70F
MINOT AFB      SUNNY     83  59  43 E10       29.70F
$$

NDZ018>021-031>035-040>046-200100-
SOUTHWEST NORTH DAKOTA

CITY           SKY/WX    TMP DP  RH WIND       PRES   REMARKS
BISMARCK       SUNNY     85  62  46 SE7       29.72F
6HR MIN TEMP:  84; 6HR MAX TEMP:  88;

DICKINSON      MOSUNNY   83  61  47 S9        29.70F
GARRISON         N/A     82  61  48 E7        29.71F
6HR MIN TEMP:  80; 6HR MAX TEMP:  84;

HETTINGER ARPT PTSUNNY   84  54  35 SE9       29.73F
$$

NDZ004>008-012>016-024-026-027-054-200100-
NORTHEAST NORTH DAKOTA

CITY           SKY/WX    TMP DP  RH WIND       PRES   REMARKS
GRAND FORKS    MOSUNNY   80  64  58 E7        29.72S
GRND FRKS AFB  SUNNY     80  65  61 E6        29.74S
DEVILS LAKE    SUNNY     81  63  54 SE6       29.72F
$$

NDZ022-023-025-028>030-036>039-047>053-200100-
SOUTHEAST NORTH DAKOTA

CITY           SKY/WX    TMP DP  RH WIND       PRES   REMARKS
FARGO          SUNNY     80  65  59 E5        29.74R
6HR MIN TEMP:  78; 6HR MAX TEMP:  83;

JAMESTOWN      PTSUNNY   78  66  66 E3        29.74F
$$



USA.gov is the U.S. government's official web portal to all federal, state and local government web resources and services.